Weather History for KIAG - March, 2012

Change the Weather History Date:

Friday, March 16, 2012

  Actual Average Record
Temperature  
Mean Temperature 57 °F -  
Max Temperature 66 °F 37 °F 66 °F (2012)
Min Temperature 48 °F 22 °F 6 °F (1992)
Degree Days  
Heating Degree Days 8    
Growing Degree Days 7 (Base 50)    
Moisture  
Dew Point 51 °F    
Average Humidity 83    
Maximum Humidity 100    
Minimum Humidity 60    
Precipitation  
Precipitation 0.02 in - - ()
Sea Level Pressure  
Sea Level Pressure 30.09 in    
Wind  
Wind Speed 9 mph (SW)    
Max Wind Speed 13 mph    
Max Gust Speed -    
Visibility 6 miles    
Events Fog    
Averages and records for this station are not official NWS values.
T = Trace of Precipitation, MM = Missing Value Source: NWS Daily Summary

Daily Weather History Graph

Daily Weather History Graph

Search for Another Location

Airport or City:

Trip Planner

Search our weather history database for the weather conditions in past years. The results will help you decide how hot, cold, wet, or windy it might be!

Date:

Astronomy

Mar. 16, 2012 Rise Set
Actual Time 7:25 AM EDT 7:23 PM EDT
Civil Twilight 6:56 AM EDT 7:52 PM EDT
Nautical Twilight 6:23 AM EDT 8:25 PM EDT
Astronomical Twilight 5:50 AM EDT 8:59 PM EDT
Moon 3:50 AM EDT (3/16) 1:34 PM EDT (3/16)
Length of Visible Light 12h 55m
Length of Day
11h 58m
Waning Crescent, 33% of the Moon is Illuminated
Mar 16
Waning Crescent
Mar 22
New
Mar 30
First Quarter
Apr 6
Full
Apr 13
Last Quarter

Hourly Weather History & Observations

Time (EDT) Temp. Dew Point Humidity Pressure Visibility Wind Dir Wind Speed Gust Speed Precip Events Conditions
12:53 AM 57.9 °F 46.9 °F 67% 30.00 in 10.0 mi SSW 9.2 mph - N/A   Overcast
1:53 AM 57.9 °F 50.0 °F 75% 29.98 in 10.0 mi SSW 10.4 mph - N/A   Partly Cloudy
2:53 AM 55.9 °F 50.0 °F 80% 30.00 in 10.0 mi SW 12.7 mph - N/A   Overcast
3:53 AM 53.1 °F 51.1 °F 93% 30.01 in 8.0 mi West 9.2 mph - 0.02 in   Overcast
4:11 AM 53.6 °F 51.8 °F 94% 30.02 in 6.0 mi West 6.9 mph - N/A   Overcast
4:32 AM 53.6 °F 50.0 °F 88% 30.01 in 7.0 mi WSW 5.8 mph - N/A   Overcast
4:53 AM 57.0 °F 53.1 °F 87% 30.02 in 8.0 mi WSW 12.7 mph - N/A   Overcast
5:26 AM 57.2 °F 53.6 °F 88% 30.01 in 7.0 mi WSW 9.2 mph - N/A   Mostly Cloudy
5:41 AM 57.2 °F 53.6 °F 88% 30.01 in 8.0 mi West 9.2 mph - N/A   Mostly Cloudy
5:53 AM 57.0 °F 54.0 °F 89% 30.02 in 8.0 mi WSW 6.9 mph - N/A   Mostly Cloudy
6:53 AM 55.0 °F 52.0 °F 89% 30.03 in 5.0 mi SSW 9.2 mph - N/A   Scattered Clouds
7:03 AM 53.6 °F 51.8 °F 94% 30.02 in 6.0 mi SSW 10.4 mph - N/A   Mostly Cloudy
7:53 AM 54.0 °F 51.1 °F 90% 30.04 in 6.0 mi SW 8.1 mph - N/A   Mostly Cloudy
8:53 AM 55.0 °F 51.1 °F 86% 30.07 in 9.0 mi SW 6.9 mph - N/A   Mostly Cloudy
9:53 AM 59.0 °F 51.1 °F 75% 30.07 in 10.0 mi SW 8.1 mph - N/A   Scattered Clouds
10:53 AM 61.0 °F 51.1 °F 70% 30.09 in 10.0 mi WSW 10.4 mph - N/A   Scattered Clouds
11:26 AM 62.6 °F 51.8 °F 68% 30.08 in 10.0 mi WSW 10.4 mph - N/A   Mostly Cloudy
11:53 AM 62.6 °F 51.8 °F 68% 30.08 in 10.0 mi WSW 5.8 mph - N/A   Mostly Cloudy
12:53 PM 60.8 °F 51.8 °F 72% 30.10 in 10.0 mi NW 8.1 mph - N/A   Mostly Cloudy
1:36 PM 62.6 °F 53.6 °F 72% 30.09 in 8.0 mi NW 8.1 mph - N/A   Scattered Clouds
1:53 PM 64.0 °F 53.1 °F 67% 30.09 in 8.0 mi WNW 6.9 mph - N/A   Scattered Clouds
2:53 PM 64.0 °F 53.1 °F 67% 30.10 in 7.0 mi NW 9.2 mph - N/A   Scattered Clouds
3:53 PM 66.0 °F 53.1 °F 63% 30.11 in 7.0 mi NNW 8.1 mph - N/A   Scattered Clouds
4:53 PM 66.0 °F 52.0 °F 60% 30.10 in 8.0 mi NNW 6.9 mph - N/A   Scattered Clouds
5:53 PM 63.0 °F 54.0 °F 72% 30.12 in 7.0 mi SSW 8.1 mph - N/A   Mostly Cloudy
6:53 PM 57.0 °F 53.1 °F 87% 30.15 in 6.0 mi South 8.1 mph - N/A   Mostly Cloudy
7:29 PM 53.6 °F 51.8 °F 94% 30.15 in 4.0 mi SSW 9.2 mph - N/A   Overcast
7:36 PM 53.6 °F 51.8 °F 94% 30.15 in 1.0 mi South 9.2 mph - N/A   Overcast
7:43 PM 53.6 °F 51.8 °F 94% 30.15 in 0.8 mi South 9.2 mph - N/A   Overcast
7:53 PM 53.1 °F 51.1 °F 93% 30.17 in 0.8 mi SSW 6.9 mph - N/A   Overcast
8:14 PM 53.6 °F 51.8 °F 94% 30.16 in 0.5 mi SSW 6.9 mph - N/A Fog Fog
8:53 PM 53.1 °F 51.1 °F 93% 30.19 in 0.5 mi SSE 3.5 mph - N/A Fog Fog
9:53 PM 48.9 °F 48.0 °F 97% 30.21 in 0.5 mi South 4.6 mph - N/A Fog Fog
10:53 PM 48.9 °F 48.0 °F 97% 30.20 in 0.5 mi SSE 4.6 mph - N/A Fog Fog
11:00 PM 48.2 °F 48.2 °F 100% 30.19 in 0.2 mi South 5.8 mph - N/A Fog Fog
11:53 PM 48.9 °F 48.0 °F 97% 30.21 in 0.5 mi South 5.8 mph - N/A Fog Fog